Monterey, Australia

8:47 PM AEDT on October 24, 2017 (GMT +1100)
Monterey

Weather History for 94767 - March, 2013

Change the Weather History Date:

Sunday, March 10, 2013

  Actual Average Record
Temperature  
Mean Temperature 76 °F -  
Max Temperature 84 °F 76 °F - ()
Min Temperature 67 °F 61 °F - ()
Cooling Degree Days 10    
Growing Degree Days 26 (Base 50)    
Moisture  
Dew Point 60 °F    
Average Humidity 58    
Maximum Humidity 83    
Minimum Humidity 27    
Precipitation  
Precipitation 0.00 in 0.18 in - ()
Sea Level Pressure  
Sea Level Pressure 30.07 in    
Wind  
Wind Speed 10 mph ()    
Max Wind Speed 20 mph    
Max Gust Speed -    
Visibility 8.3 miles    
Events      
T = Trace of Precipitation, MM = Missing Value Source: Averaged Metar Reports

Daily Weather History Graph

Daily Weather History Graph

Search for Another Location

Airport or City:

Trip Planner

Search our weather history database for the weather conditions in past years. The results will help you decide how hot, cold, wet, or windy it might be!

Date:

Astronomy

Mar. 10, 2013 Rise Set
Actual Time 6:50 AM AEDT 7:20 PM AEDT
Civil Twilight 6:25 AM AEDT 7:45 PM AEDT
Nautical Twilight 5:55 AM AEDT 8:14 PM AEDT
Astronomical Twilight 5:25 AM AEDT 8:44 PM AEDT
Moon 4:54 AM AEDT (3/10) 6:02 PM AEDT (3/10)
Length of Visible Light 13h 20m
Length of Day
12h 29m
Waning Crescent, 4% of the Moon is Illuminated
Mar 10
Waning Crescent
Mar 12
New
Mar 20
First Quarter
Mar 27
Full
Apr 3
Last Quarter

Hourly Weather History & Observations

Time (AEDT) Temp. Heat Index Dew Point Humidity Pressure Visibility Wind Dir Wind Speed Gust Speed Precip Events Conditions
12:00 AM 75 °F - 64 °F 60% 30.11 in 19 mi North 10.4 mph - -   Partly Cloudy
12:00 AM 75.2 °F - 64.4 °F 69% 30.09 in 6.2 mi North 10.4 mph - N/A   Partly Cloudy
12:30 AM 75.2 °F - 62.6 °F 65% 30.09 in 6.2 mi North 10.4 mph - N/A   Scattered Clouds
1:00 AM 73.4 °F - 62.6 °F 69% 30.09 in 6.2 mi North 9.2 mph - N/A   Partly Cloudy
1:30 AM 73.4 °F - 62.6 °F 69% 30.09 in 6.2 mi North 9.2 mph - N/A   Scattered Clouds
2:00 AM 73 °F - 62 °F 59% 30.10 in - North 6.9 mph - -  
2:00 AM 73.4 °F - 62.6 °F 69% 30.09 in 6.2 mi North 6.9 mph - N/A   Scattered Clouds
2:30 AM 73.4 °F - 60.8 °F 65% 30.09 in 6.2 mi North 5.8 mph - N/A   Scattered Clouds
3:00 AM 72 °F - 62 °F 63% 30.09 in 22 mi NW 4.6 mph - -   Partly Cloudy
3:00 AM 71.6 °F - 62.6 °F 73% 30.06 in - NW 4.6 mph - N/A   Clear
3:30 AM 71.6 °F - 60.8 °F 69% 30.06 in - NNE 6.9 mph - N/A   Clear
4:00 AM 71.6 °F - 60.8 °F 69% 30.06 in - NNE 6.9 mph - N/A   Clear
4:30 AM 71.6 °F - 60.8 °F 69% 30.06 in - North 6.9 mph - N/A   Clear
5:00 AM 70 °F - 62 °F 67% 30.08 in - NNW 8.1 mph - -  
5:00 AM 69.8 °F - 60.8 °F 73% 30.06 in - NNW 8.1 mph - N/A   Clear
5:30 AM 69.8 °F - 62.6 °F 78% 30.06 in - NNW 8.1 mph - N/A   Clear
6:00 AM 70 °F - 62 °F 68% 30.08 in 19 mi North 6.9 mph - -   Partly Cloudy
6:00 AM 69.8 °F - 62.6 °F 78% 30.06 in - North 6.9 mph - N/A   Clear
6:30 AM 69.8 °F - 60.8 °F 73% 30.06 in 6.2 mi North 6.9 mph - N/A   Scattered Clouds
7:00 AM 68.0 °F - 62.6 °F 83% 30.09 in 6.2 mi NW 5.8 mph - N/A   Scattered Clouds
7:30 AM 71.6 °F - 60.8 °F 69% 30.09 in 6.2 mi NNW 5.8 mph - N/A   Scattered Clouds
8:00 AM 71 °F - 62 °F 64% 30.12 in - NW 8.1 mph - -  
8:00 AM 71.6 °F - 60.8 °F 69% 30.09 in 6.2 mi NW 8.1 mph - N/A   Scattered Clouds
8:30 AM 73.4 °F - 60.8 °F 65% 30.09 in 6.2 mi NW 8.1 mph - N/A   Scattered Clouds
9:00 AM 75 °F - 62 °F 55% 30.13 in 19 mi NNW 8.1 mph - -   Partly Cloudy
9:00 AM 75.2 °F - 62.6 °F 65% 30.12 in 6.2 mi NNW 8.1 mph - N/A   Mostly Cloudy
9:30 AM 77.0 °F - 60.8 °F 57% 30.12 in 6.2 mi North 9.2 mph - N/A   Mostly Cloudy
10:00 AM 78.8 °F - 60.8 °F 54% 30.12 in 6.2 mi North 10.4 mph - N/A   Mostly Cloudy
10:30 AM 78.8 °F - 59.0 °F 51% 30.12 in 6.2 mi North 10.4 mph - N/A   Scattered Clouds
11:00 AM 81 °F - 58 °F 34% 30.12 in - North 10.4 mph - -  
11:00 AM 80.6 °F 80.8 °F 57.2 °F 45% 30.09 in 6.2 mi North 10.4 mph - N/A   Scattered Clouds
11:30 AM 78.8 °F - 55.4 °F 44% 30.09 in 6.2 mi NNE 16.1 mph - N/A   Mostly Cloudy
12:00 PM 80 °F - 56 °F 34% 30.10 in 16 mi NE 15.0 mph - -   Partly Cloudy
12:00 PM 80.6 °F 80.8 °F 57.2 °F 45% 30.09 in 6.2 mi NE 15.0 mph - N/A   Mostly Cloudy
12:30 PM 82.4 °F 81.7 °F 55.4 °F 39% 30.06 in - NNE 13.8 mph - N/A   Clear
1:00 PM 82.4 °F 81.7 °F 55.4 °F 39% 30.06 in - NE 17.3 mph - N/A   Clear
1:30 PM 84.2 °F 82.8 °F 53.6 °F 35% 30.06 in - NE 16.1 mph - N/A   Clear
2:00 PM 82 °F - 54 °F 27% 30.06 in - NE 17.3 mph - -  
2:00 PM 82.4 °F 81.4 °F 53.6 °F 37% 30.04 in - NE 17.3 mph - N/A   Clear
2:30 PM 82.4 °F 81.7 °F 55.4 °F 39% 30.04 in - NE 18.4 mph - N/A   Clear
3:00 PM 83 °F - 55 °F 28% 30.04 in 19 mi NE 18.4 mph - -   Partly Cloudy
3:00 PM 82.4 °F 81.7 °F 55.4 °F 39% 30.04 in - NE 18.4 mph - N/A   Clear
3:30 PM 82.4 °F 82.0 °F 57.2 °F 42% 30.04 in - NE 19.6 mph - N/A   Clear
4:00 PM 82.4 °F 81.7 °F 55.4 °F 39% 30.01 in - ENE 18.4 mph - N/A   Clear
4:30 PM 80.6 °F 81.1 °F 59.0 °F 48% 30.01 in - ENE 19.6 mph - N/A   Clear
5:00 PM 82 °F - 59 °F 36% 30.04 in - ENE 19.6 mph - -  
5:00 PM 82.4 °F 82.5 °F 59.0 °F 45% 30.01 in - ENE 19.6 mph - N/A   Clear
5:30 PM 78.8 °F - 60.8 °F 54% 30.04 in 6.2 mi NE 19.6 mph - N/A   Mostly Cloudy
6:00 PM 77 °F - 63 °F 53% 30.04 in 19 mi ENE 18.4 mph - -   Scattered Clouds
6:00 PM 77.0 °F - 62.6 °F 61% 30.04 in 6.2 mi ENE 18.4 mph - N/A   Mostly Cloudy
6:30 PM 77.0 °F - 62.6 °F 61% 30.04 in 6.2 mi NE 19.6 mph - N/A   Mostly Cloudy
7:00 PM 75.2 °F - 62.6 °F 65% 30.04 in 6.2 mi NE 19.6 mph - N/A   Mostly Cloudy
7:30 PM 75.2 °F - 62.6 °F 65% 30.04 in 6.2 mi NE 18.4 mph - N/A   Scattered Clouds
8:00 PM 75 °F - 63 °F 59% 30.07 in - NE 16.1 mph - -  
8:00 PM 75.2 °F - 62.6 °F 65% 30.06 in 6.2 mi NE 16.1 mph - N/A   Scattered Clouds
8:30 PM 73.4 °F - 62.6 °F 69% 30.06 in 6.2 mi NE 15.0 mph - N/A   Scattered Clouds
9:00 PM 74 °F - 64 °F 62% 30.09 in 25 mi NE 15.0 mph - -   Partly Cloudy
9:00 PM 75.2 °F - 64.4 °F 69% 30.06 in - NE 15.0 mph - N/A   Clear
9:30 PM 73.4 °F - 62.6 °F 69% 30.09 in 6.2 mi NE 15.0 mph - N/A   Scattered Clouds
10:00 PM 75.2 °F - 62.6 °F 65% 30.09 in 6.2 mi NE 15.0 mph - N/A   Mostly Cloudy
10:30 PM 75.2 °F - 62.6 °F 65% 30.09 in 6.2 mi NE 13.8 mph - N/A   Mostly Cloudy
11:00 PM 74 °F - 63 °F 61% 30.12 in - NE 11.5 mph - -  
11:00 PM 75.2 °F - 62.6 °F 65% 30.09 in 6.2 mi NE 11.5 mph - N/A   Mostly Cloudy
11:30 PM 75.2 °F - 62.6 °F 65% 30.09 in 6.2 mi NE 10.4 mph - N/A   Mostly Cloudy